SCP
0 0 0 0 0 0 0 -0 0 0 0 0 0 0 -0 0 0 -0 -0 0 0 -0 0 0 0 0 -0 0 0 0 0 0 0 0 0 0 0 0 0 0 0 0 0 0 0 0 0 0 0 0 0 0 0 0
0 0 0 0 0 0 0 -0 0 0 0 0 0 0 0 0 0 -0 -0 0 0 0 0 0 0 0 0 0 -0 0 0 0 0 0 0 0 0 0 0 0 0 0 0 0 0 0 0 -0 0 0 0 0 0 0
0 0 0 0 0 0 -0 0 0 0 0 -0 -0 0 -0 0 0 -0 -0 -0 0 0 0 0 0 0 0 -0 0 0 0 0 0 0 0 0 0 0 0 0 0 0 0 0 0 0 0 0 0 0 0 0 0 0
0 0 0 0 0 0 -0 0 0 0 0 0 0 0 0 0 0 -0 0 -0 0 0 0 0 0 0 0 0 -0 0 0 0 0 0 0 0 0 0 0 0 0 0 0 0 0 0 0 0 0 0 0 0 0 0
0 0 0 0 0 0 -0 0 0 0 0 -0 0 0 0 0 -0 0 0 -0 0 0 0 0 0 0 0 0 -0 0 0 0 0 0 0 0 0 0 0 0 0 0 0 0 0 0 0 0 0 0 0 0 0 0
0 0 0 0 0 -0 0 0 0 0 0 -0 -0 0 0 0 0 0 0 0 0 0 0 0 0 0 0 0 0 0 0 0 0 0 0 0 0 0 0 0 0 0 0 0 0 0 0 0 0 0 0 0 0 0
0 0 0 0 0 -0 0 0 0 0 -0 -0 -0 0 0 -0 0 0 0 -0 0 0 0 0 0 -0 0 0 0 0 0 0 0 0 0 0 0 0 0 0 0 0 0 0 0 0 0 0 0 0 0 0 0 0
0 0 0 0 0 0 0 0 0 0 -0 -0 0 -0 0 0 0 0 0 -0 0 0 0 0 0 0 0 0 0 -0 0 0 0 0 0 0 0 0 0 0 0 0 0 0 0 0 0 0 0 0 0 0 0 0
0 0 -0 0 0 -0 -0 -0 0 -0 -0 -0 0 -0 0 0 0 0 0 0 0 0 0 0 0 -0 0 0 0 0 0 0 0 0 0 0 0 0 0 0 0 0 -0 0 -0 0 0 0 0 0 0 0 0 0
0 0 -0 -0 -0 -0 -0 -0 -0 -0 -0 -0 0 0 0 0 0 -0 -0 0 0 0 0 0 0 0 0 -0 -0 -0 0 0 0 0 0 0 0 0 0 -0 -0 -0 -0 -0 0 0 0 0 0 0 0 0 0 0
0 -0 -0 -0 -0 -0 -0 0 -0 -0 0 -0 0 0 -0 0 0 0 0 0 0 0 0 0 0 -0 -0 0 0 -0 -0 -0 -0 -0 0 0 0 0 0 0 -0 -0 -0 -0 -0 -0 0 0 0 0 0 0 0 0
-0 -0 -0 -0 -0 -0 -0 -0 -0 -0 -0 -0 -0 -0 0 0 0 0 0 0 0 0 0 0 0 -0 0 0 0 0 -0 -0 -0 -0 -0 -0 0 -0 -0 -0 -0 -0 -0 -0 -0 -0 0 0 0 0 0 0 0 0
-0 -0 0 -0 -0 -0 -0 -0 -0 -0 -0 -0 -0 -0 -0 0 0 0 0 0 0 0 0 0 0 0 -0 0 0 -0 0 -0 -0 -0 -0 -0 -0 -0 -0 -0 -0 -0 -0 -0 0 0 0 0 0 0 0 0 0 0
-0 0 0 0 0 -0 -0 0 0 0 -0 -0 -0 0 0 0 0 0 0 0 0 0 0 0 0 0 0 0 -0 -0 0 0 -0 -0 -0 -0 -0 -0 -0 -0 -0 0 0 0 0 0 0 0 0 0 0 0 0 0
-0 0 0 0 -0 -0 -0 0 0 0 0 -0 0 0 0 0 0 0 0 0 0 0 0 0 0 0 0 0 -0 -0 -0 -0 -0 -0 -0 0 0 0 0 0 0 -0 0 0 0 0 0 0 0 0 0 0 0 0
0 0 0 -0 0 -0 0 0 0 0 0 0 0 0 0 0 0 0 0 0 0 0 0 0 0 0 0 0 -0 -0 -0 -0 0 0 0 0 0 0 0 0 0 0 0 -0 -0 -0 -0 0 0 0 0 0 0 0
0 0 0 0 -0 0 0 0 0 0 0 0 0 0 0 0 0 0 0 0 0 0 0 0 0 0 0 0 0 0 0 0 -0 -0 -0 -0 0 0 0 0 0 0 0 0 0 0 0 0 0 0 0 0 0 0
0 0 0 0 0 0 0 0 0 0 0 0 0 0 0 0 0 0 0 0 0 0 0 0 0 0 0 0 0 0 0 0 -0 -0 -0 -0 -0 0 0 0 0 0 0 0 0 0 0 0 0 0 0 0 0 0
0 0 0 0 0 0 0 0 0 0 0 0 0 0 0 0 0 0 0 0 0 0 0 0 0 0 0 0 0 0 0 0 0 -0 -0 -0 0 0 0 0 0 0 0 0 0 0 0 0 0 0 0 0 0 0
0 0 0 0 0 0 0 0 0 0 0 0 0 0 0 0 0 0 0 0 0 0 0 0 0 0 0 0 0 0 0 0 0 0 0 -0 0 0 0 0 0 0 0 0 0 0 0 0 0 0 0 0 0 0
0 0 0 0 0 0 0 0 0 0 0 0 0 0 0 0 0 0 0 0 0 0 0 0 0 0 0 0 0 0 0 0 0 0 0 0 0 0 0 0 0 0 0 0 0 0 0 0 0 0 0 0 0 0
0 0 0 0 0 0 0 0 0 0 0 0 0 0 0 0 0 0 0 0 0 0 0 0 0 0 0 0 0 0 0 0 0 0 0 0 0 0 0 0 0 0 0 0 0 0 0 0 0 0 0 0 0 0
0 0 0 0 0 0 0 0 0 0 0 0 0 0 0 0 0 0 0 0 0 0 0 0 0 0 0 0 0 0 0 0 0 0 0 0 0 0 0 0 0 0 0 0 0 0 0 0 0 0 0 0 0 0
0 0 0 0 0 0 0 0 0 0 0 0 0 0 0 0 0 0 0 0 0 0 0 0 0 0 0 0 0 0 0 0 0 0 0 0 0 0 0 0 0 0 0 0 0 0 0 0 0 0 0 0 0 0
0 0 0 0 0 0 0 0 0 0 0 0 0 0 0 0 0 0 0 0 0 0 0 0 0 0 0 0 0 0 0 0 0 0 0 0 0 0 0 0 0 0 0 0 0 0 0 -0 -0 0 0 0 0 0
0 0 0 0 0 0 0 0 0 0 0 0 0 0 0 0 0 0 0 0 0 0 0 0 0 0 0 0 0 0 0 0 0 0 0 0 0 0 0 0 0 0 0 0 0 -0 -0 -0 -0 0 0 0 0 0
-0 -0 0 0 0 0 0 0 0 0 0 0 0 0 0 0 0 0 0 0 0 0 0 0 0 0 0 0 0 0 0 0 0 0 0 0 0 0 0 0 0 0 0 0 -0 -0 -0 -0 0 0 0 0 0 0
0 0 0 0 0 0 0 0 0 0 0 0 0 0 0 0 0 0 0 0 0 0 0 0 0 0 0 0 0 0 0 0 0 0 0 0 0 0 0 0 0 0 -0 -0 -0 -0 0 0 0 0 0 0 0 0
0 0 0 0 -0 -0 0 0 0 0 0 0 0 0 0 0 0 0 0 0 0 0 0 0 0 0 0 0 0 0 0 0 0 0 0 0 0 0 0 0 -0 -0 -0 -0 0 0 0 0 0 0 0 0 0 0
0 0 0 0 -0 -0 0 0 0 0 0 0 0 0 0 0 0 0 0 0 0 0 0 0 0 0 0 0 0 0 0 0 0 0 0 0 0 0 -0 -0 -0 -0 -0 -0 -0 0 0 0 0 0 0 0 0 0
0 0 0 0 0 0 0 0 0 0 0 0 0 0 0 0 0 0 0 0 0 0 0 0 0 0 0 0 0 0 0 0 0 0 0 0 0 -0 -0 -0 -0 -0 -0 -0 -0 0 0 0 0 0 0 0 0 0
0 0 0 0 0 0 0 0 0 0 0 0 0 0 0 0 0 0 0 0 0 0 0 0 0 0 0 0 0 0 0 0 0 0 0 -0 -0 0 -0 -0 -0 -0 -0 0 0 0 0 0 0 0 0 0 0 0
0 0 0 0 0 0 0 0 0 0 0 0 0 0 0 0 0 0 0 0 0 0 0 0 0 0 0 0 0 0 0 0 0 0 -0 0 0 -0 -0 -0 -0 -0 0 0 0 0 0 0 0 0 0 0 0 0
Wind_Speed_500mb
70 71 72 73 73 78 83 80 80 71 69 63 54 45 38 34 28 28 41 19 18 7 8 8 5 5 9 4 2 5 5 5 3 2 4 4 5 6 4 4 7 9 8 6 6 5 11 13 10 9 7 3 1 3
68 69 73 74 76 81 82 83 74 69 66 65 54 42 31 28 24 25 33 25 7 9 4 8 7 8 8 8 9 6 3 3 1 5 3 4 4 3 2 3 3 1 7 6 10 7 4 22 6 8 3 3 3 6
68 66 73 73 78 82 82 77 65 64 68 69 50 31 25 24 22 21 27 7 4 5 3 6 6 6 8 10 9 6 5 4 1 3 5 3 6 5 4 6 1 4 3 3 4 5 6 16 23 23 15 9 3 5
67 67 73 76 80 82 76 68 59 56 57 48 10 11 15 15 16 18 24 12 9 2 3 3 5 6 9 16 13 11 13 8 4 0 1 4 6 3 2 3 3 3 8 6 7 9 5 17 24 27 29 24 13 13
67 68 75 78 80 79 69 62 51 46 43 33 19 12 12 11 14 14 16 8 9 6 1 1 4 7 6 6 6 8 8 7 4 2 4 2 3 5 2 3 2 4 4 4 5 5 2 3 8 12 27 31 24 21
65 69 77 79 83 73 63 54 45 39 35 28 21 15 12 11 8 12 4 14 19 16 3 2 3 8 6 4 3 2 2 4 2 2 3 5 3 3 4 3 5 18 15 11 7 18 16 19 17 16 16 21 25 22
62 69 82 80 78 71 61 48 39 34 32 27 20 15 9 12 13 9 5 4 13 18 4 4 6 6 6 3 6 8 9 5 5 4 6 3 5 4 4 3 11 27 32 22 14 13 11 8 10 15 13 16 24 23
62 73 76 78 76 60 42 36 33 32 29 23 19 14 12 17 20 17 24 24 6 18 5 5 5 6 8 6 4 11 7 6 16 6 7 5 6 6 4 5 20 33 40 10 15 20 20 23 18 16 13 18 27 27
57 72 71 68 58 47 40 35 28 26 23 17 9 3 16 12 10 6 6 19 30 7 6 5 7 5 6 6 6 4 8 5 9 5 4 7 4 3 6 10 24 41 28 39 39 28 22 18 17 17 15 21 28 29
54 66 67 58 56 48 41 31 27 21 23 26 25 2 3 5 31 24 14 9 5 5 2 4 6 2 4 7 6 4 11 2 4 4 15 6 4 11 6 19 40 39 33 30 24 11 12 15 21 21 20 19 25 28
50 63 60 55 53 45 33 27 24 25 26 11 9 6 7 17 4 1 4 3 2 3 6 6 5 7 3 5 4 6 3 2 5 5 3 4 4 5 20 38 29 29 28 20 13 12 15 25 22 14 15 19 22 21
46 60 58 48 57 44 20 20 19 22 8 9 7 7 2 4 3 5 2 2 1 5 4 6 4 5 7 4 6 4 5 5 2 11 5 3 5 13 37 30 24 27 27 18 21 12 13 24 13 9 4 6 13 15
40 54 49 46 52 23 14 12 12 15 7 4 3 1 4 6 5 5 3 5 3 5 10 8 2 5 6 5 11 6 9 3 7 7 3 7 10 29 25 21 23 27 27 25 18 17 18 15 17 13 14 11 12 8
38 47 38 44 44 18 12 9 16 19 8 5 5 7 3 4 4 5 6 5 2 5 17 11 8 5 5 8 2 9 4 4 7 6 6 5 16 21 18 21 25 29 29 28 29 31 32 32 30 29 26 21 14 9
39 36 27 39 39 22 13 22 13 15 6 3 1 3 3 3 7 5 8 8 5 15 16 10 10 4 5 8 4 7 8 3 8 8 6 4 10 10 16 22 26 30 34 36 37 36 34 31 28 25 20 14 7 7
42 27 28 36 36 23 11 18 17 11 4 2 3 3 3 1 4 7 8 8 11 28 8 3 5 7 4 7 6 7 9 9 7 6 9 7 13 19 21 23 25 28 30 29 27 26 23 21 18 17 15 16 19 25
42 22 35 35 32 26 14 13 7 5 3 1 1 3 5 5 7 2 5 5 27 10 3 5 6 8 4 5 1 7 8 6 18 23 20 21 23 26 28 29 27 25 22 20 19 18 18 19 21 22 22 25 28 32
40 41 28 29 28 26 12 4 5 3 1 2 1 1 3 6 7 6 6 17 16 4 8 5 16 5 8 10 7 7 14 18 25 25 27 28 29 29 27 23 19 15 14 15 18 21 24 25 26 28 31 35 39 44
41 40 26 22 21 19 6 3 3 2 3 3 4 3 4 6 8 10 8 25 9 3 7 6 6 5 7 9 10 22 30 22 24 28 30 32 30 26 20 14 10 11 13 16 18 17 19 24 29 34 38 43 47 51
36 32 17 13 13 7 6 4 4 2 1 3 3 2 3 5 5 7 13 22 11 5 2 2 8 6 6 11 25 30 26 24 28 33 31 30 26 19 10 5 9 12 15 14 15 22 27 33 37 42 47 52 56 57
34 24 26 15 7 10 7 4 3 1 1 4 3 3 3 4 4 6 9 14 9 7 5 9 6 15 29 30 29 27 24 21 19 14 29 31 23 14 3 10 13 15 13 17 25 32 37 42 47 50 52 53 54 52
33 29 15 6 8 6 6 7 2 3 2 2 5 5 4 2 4 7 7 11 9 9 7 5 18 27 31 30 26 21 18 15 13 14 19 21 16 7 11 14 16 14 19 26 34 40 44 48 51 52 52 49 44 40
31 18 7 8 7 6 3 6 5 5 3 4 3 1 3 2 4 5 6 11 11 20 22 17 25 30 29 26 21 15 10 10 14 16 15 12 10 13 15 14 13 19 27 34 41 45 48 49 49 48 45 39 36 32
32 6 7 6 9 4 4 5 4 4 3 0 2 4 3 3 2 4 6 7 18 31 37 29 32 34 30 25 20 14 6 13 15 14 13 16 18 16 11 12 19 27 34 40 44 45 45 45 43 37 32 29 29 28
8 6 5 7 6 4 3 3 2 3 5 5 5 4 3 1 3 4 6 7 17 32 37 32 33 32 30 26 22 16 7 9 12 13 14 15 11 8 10 17 26 32 40 40 41 42 41 36 29 27 26 23 21 24
1 4 3 5 3 7 9 7 9 11 5 7 6 2 3 4 3 9 6 7 12 24 31 34 31 29 25 19 15 13 15 15 11 10 10 8 3 8 18 26 33 36 35 37 38 35 29 24 23 21 18 21 25 29
6 10 10 11 5 3 2 2 2 3 8 9 6 6 4 4 8 6 4 8 11 20 22 26 27 26 23 21 18 19 18 14 10 9 10 2 9 19 26 29 30 31 33 33 29 21 19 17 15 17 22 27 33 39
21 10 9 12 11 9 4 2 7 10 7 12 16 7 9 11 6 4 6 14 20 21 23 25 25 21 21 23 22 19 14 14 15 11 2 12 21 25 28 27 28 29 27 21 15 14 13 15 18 23 28 34 37 41
18 21 17 6 5 9 14 12 9 11 11 22 7 6 5 3 6 9 19 20 23 24 26 25 25 23 22 20 19 20 22 18 9 2 12 18 22 24 24 26 25 21 15 12 11 11 14 19 24 30 35 37 39 41
13 26 13 9 7 11 8 12 4 13 13 13 5 6 6 7 12 18 19 21 23 24 24 25 23 21 21 20 20 20 14 6 5 11 16 19 21 22 21 19 14 9 10 9 10 14 20 26 31 34 35 38 39 40
11 29 10 11 8 5 7 10 12 12 12 6 5 4 9 12 12 17 19 22 24 23 22 21 21 20 21 19 17 12 9 8 9 13 15 16 16 15 12 7 7 8 8 10 15 21 26 30 31 34 35 38 40 40
17 20 12 7 4 7 13 8 11 5 6 5 4 6 8 7 6 13 13 19 23 24 24 23 23 21 17 15 12 9 9 7 8 9 11 11 9 6 5 7 7 6 10 17 23 27 28 30 33 35 38 38 37 34
7 10 7 8 5 6 15 11 4 4 6 5 5 4 4 7 6 9 9 17 20 21 21 21 19 16 14 12 10 7 5 4 6 6 5 3 5 8 9 9 7 11 17 22 25 26 29 32 35 37 36 34 32 30
Wind_Direction_500mb
323 325 325 325 325 322 324 324 322 321 318 314 312 307 296 293 289 288 288 276 245 242 219 210 237 276 321 327 266 313 335 336 40 186 138 199 121 198 88 209 178 159 136 171 117 88 277 173 125 181 230 183 17 48
322 324 326 327 325 324 325 324 322 320 318 310 303 297 289 291 283 286 285 225 241 232 186 219 249 281 281 303 304 280 245 228 283 89 40 102 77 74 155 243 360 314 175 183 185 213 204 193 214 241 247 293 179 110
324 326 325 326 325 325 325 327 325 324 324 319 287 275 274 283 272 276 277 260 206 220 219 218 225 247 258 281 312 302 317 329 12 167 190 130 125 145 144 256 47 284 178 174 45 299 241 233 241 253 252 253 225 166
324 326 328 327 327 325 325 327 325 329 339 348 346 273 274 269 272 272 282 230 232 202 151 203 227 275 288 291 273 263 295 317 316 202 72 125 108 196 126 160 173 181 139 186 263 261 292 270 262 261 248 241 226 204
325 325 328 327 327 327 328 325 326 330 333 340 336 310 285 263 262 271 275 257 245 248 163 263 232 247 293 326 345 258 273 294 304 10 39 52 67 98 4 54 316 198 231 184 248 318 64 314 321 301 242 232 222 205
326 325 327 328 326 326 325 325 325 327 327 328 318 300 280 265 242 295 220 246 225 217 249 56 289 337 223 38 59 61 159 224 269 115 138 110 86 106 99 165 69 13 338 314 287 322 308 297 307 304 253 232 221 209
326 328 331 329 327 323 319 321 323 323 320 324 316 308 269 240 215 227 247 50 198 196 176 18 340 9 25 10 16 19 48 60 80 71 45 56 44 50 95 102 346 353 351 335 329 312 288 303 291 304 271 228 214 205
329 331 332 333 335 335 328 327 324 326 324 316 308 292 268 209 225 254 254 261 245 189 219 110 280 5 21 13 21 13 9 30 36 41 41 25 9 14 38 286 343 344 337 314 357 332 290 282 286 278 257 218 210 203
333 333 336 339 341 341 340 337 334 329 328 341 39 284 298 220 202 208 246 214 189 173 156 89 134 226 16 34 7 24 20 53 10 56 36 353 329 46 240 302 334 337 320 298 302 294 289 288 287 275 244 219 214 205
333 337 337 337 342 342 338 338 341 347 343 324 314 284 70 50 127 117 146 158 168 191 86 101 131 90 33 30 25 352 24 54 60 308 324 51 275 276 314 349 332 328 323 314 303 344 5 351 328 293 265 242 229 222
332 338 337 337 336 332 338 337 339 334 339 345 16 27 150 145 266 192 86 93 41 40 20 106 178 140 97 99 171 37 182 335 76 284 87 338 330 278 348 341 347 345 341 329 288 228 341 340 317 300 276 240 223 219
332 337 337 334 337 333 335 337 341 355 1 12 58 78 119 291 355 77 24 352 69 222 174 137 135 102 116 106 101 353 115 29 172 328 68 21 252 5 346 358 12 18 24 51 102 88 4 355 4 356 105 190 203 193
331 341 341 346 345 359 358 356 7 6 7 335 344 9 13 342 19 111 229 308 307 203 177 169 82 89 111 88 69 68 69 199 306 37 192 230 321 351 4 26 35 36 41 51 50 27 11 33 35 56 82 116 142 161
326 339 342 358 360 39 7 343 345 2 341 318 10 328 130 322 260 188 204 199 301 245 166 131 98 99 61 54 179 83 246 60 50 57 233 257 345 8 34 51 54 54 54 57 59 61 67 70 72 75 76 81 80 72
330 330 327 354 352 360 341 331 340 342 290 267 94 265 258 337 256 259 274 282 222 170 154 118 78 79 15 81 32 106 37 355 191 207 224 288 16 64 83 79 72 73 73 72 72 73 72 71 70 68 68 63 43 333
333 332 336 350 343 337 310 323 320 307 254 229 131 108 219 51 264 215 220 258 188 169 157 115 103 60 6 126 77 200 117 208 225 213 168 120 116 106 97 93 87 82 77 72 67 60 53 46 37 25 5 342 325 315
334 328 333 337 341 337 296 319 310 272 263 257 333 221 209 273 264 232 186 183 167 178 219 116 87 198 107 47 278 188 198 214 169 151 139 131 122 114 108 102 93 83 69 53 37 22 8 357 347 339 329 324 319 313
331 328 319 321 333 342 310 229 237 259 294 223 193 187 241 263 288 253 227 171 170 246 170 200 130 120 184 162 255 227 202 142 141 144 142 138 133 126 118 107 89 63 34 11 355 349 346 344 341 339 335 329 324 319
327 320 321 317 337 333 291 290 259 200 217 267 278 263 264 280 261 247 218 181 198 240 166 150 87 196 228 212 192 146 154 154 164 155 151 147 143 137 127 104 61 17 351 337 334 337 337 332 328 326 323 320 317 316
323 323 299 299 320 298 274 275 295 294 220 210 247 277 297 289 270 237 202 182 187 177 290 171 213 228 198 138 137 142 143 148 155 156 160 157 154 152 140 48 348 326 319 322 326 330 330 328 327 324 322 322 321 321
348 336 316 276 291 235 262 255 251 236 233 238 230 225 248 209 210 205 198 186 187 217 250 233 219 147 130 128 128 128 128 133 154 176 176 169 169 175 243 309 309 309 313 325 327 326 328 326 323 324 326 325 324 323
341 335 319 252 239 248 261 223 199 183 213 247 207 235 247 247 205 188 205 210 226 227 238 187 155 146 140 138 133 129 124 124 141 157 167 176 182 233 283 291 299 309 322 324 324 324 324 323 326 327 327 328 328 330
345 334 275 243 228 229 231 208 198 200 148 242 200 311 277 264 226 210 247 224 224 192 187 182 169 161 156 153 149 142 142 159 159 158 167 190 248 276 286 295 309 318 321 323 324 324 325 327 328 329 331 333 337 342
339 249 250 236 213 235 189 182 215 176 158 124 198 243 267 247 220 213 254 244 200 194 199 197 183 178 175 173 174 170 148 176 182 191 219 247 268 283 290 304 315 321 324 324 324 326 328 329 330 333 339 345 345 347
311 254 244 263 207 97 89 354 316 91 241 202 197 244 254 184 200 237 234 254 195 194 193 188 193 191 193 190 194 198 204 178 188 209 234 251 261 268 298 319 323 326 326 325 327 329 330 333 339 346 351 353 358 1
319 279 187 240 255 158 193 164 202 206 171 185 218 196 168 167 190 240 224 170 165 177 192 199 193 184 177 176 186 192 184 178 188 218 236 214 212 320 326 328 330 328 327 327 330 333 339 350 355 356 0 4 360 349
237 279 230 236 230 198 18 228 221 150 183 200 176 167 191 193 238 254 149 140 141 164 172 176 179 185 190 191 186 181 181 191 192 168 160 148 341 333 332 331 329 330 332 334 341 353 3 4 8 11 5 354 346 346
223 232 201 196 193 216 168 221 192 209 210 173 139 187 197 204 231 162 140 137 135 140 149 160 167 167 166 171 177 182 173 162 161 151 66 337 336 337 335 333 333 336 340 351 7 12 19 21 12 357 348 347 348 346
215 212 191 168 190 222 223 211 219 214 178 174 179 210 220 156 147 143 146 143 140 133 127 134 144 147 150 152 154 155 151 147 149 327 333 337 341 339 334 333 335 340 2 25 31 29 17 1 350 347 347 348 348 347
215 195 169 150 191 220 232 217 233 172 180 178 166 130 114 111 123 139 139 135 135 137 141 142 143 147 152 153 154 158 166 184 313 329 333 336 337 334 333 334 346 28 57 54 25 5 356 352 350 349 348 344 344 345
189 186 196 188 221 246 232 198 169 153 146 149 141 119 118 119 131 143 148 151 150 149 144 144 147 150 155 162 174 200 240 280 310 327 328 329 336 339 340 10 67 77 58 17 355 353 352 352 351 348 347 347 349 353
193 189 180 201 249 184 154 164 162 168 148 159 108 117 126 119 125 161 166 177 177 172 170 168 168 173 182 199 216 237 263 283 304 315 322 336 349 3 78 101 94 54 10 355 354 351 354 352 349 348 349 354 360 4
195 192 170 134 124 213 191 171 112 100 73 72 57 91 112 143 131 188 205 210 204 203 199 194 192 194 207 222 230 234 246 268 292 322 351 47 101 113 112 96 50 12 0 354 350 355 352 352 351 353 358 4 9 13
Wind_Speed_850mb
70 71 72 73 73 78 83 80 80 71 69 63 54 45 38 34 28 28 41 19 18 7 8 8 5 5 9 4 2 5 5 5 3 2 4 4 5 6 4 4 7 9 8 6 6 5 11 13 10 9 7 3 1 3
68 69 73 74 76 81 82 83 74 69 66 65 54 42 31 28 24 25 33 25 7 9 4 8 7 8 8 8 9 6 3 3 1 5 3 4 4 3 2 3 3 1 7 6 10 7 4 22 6 8 3 3 3 6
68 66 73 73 78 82 82 77 65 64 68 69 50 31 25 24 22 21 27 7 4 5 3 6 6 6 8 10 9 6 5 4 1 3 5 3 6 5 4 6 1 4 3 3 4 5 6 16 23 23 15 9 3 5
67 67 73 76 80 82 76 68 59 56 57 48 10 11 15 15 16 18 24 12 9 2 3 3 5 6 9 16 13 11 13 8 4 0 1 4 6 3 2 3 3 3 8 6 7 9 5 17 24 27 29 24 13 13
67 68 75 78 80 79 69 62 51 46 43 33 19 12 12 11 14 14 16 8 9 6 1 1 4 7 6 6 6 8 8 7 4 2 4 2 3 5 2 3 2 4 4 4 5 5 2 3 8 12 27 31 24 21
65 69 77 79 83 73 63 54 45 39 35 28 21 15 12 11 8 12 4 14 19 16 3 2 3 8 6 4 3 2 2 4 2 2 3 5 3 3 4 3 5 18 15 11 7 18 16 19 17 16 16 21 25 22
62 69 82 80 78 71 61 48 39 34 32 27 20 15 9 12 13 9 5 4 13 18 4 4 6 6 6 3 6 8 9 5 5 4 6 3 5 4 4 3 11 27 32 22 14 13 11 8 10 15 13 16 24 23
62 73 76 78 76 60 42 36 33 32 29 23 19 14 12 17 20 17 24 24 6 18 5 5 5 6 8 6 4 11 7 6 16 6 7 5 6 6 4 5 20 33 40 10 15 20 20 23 18 16 13 18 27 27
57 72 71 68 58 47 40 35 28 26 23 17 9 3 16 12 10 6 6 19 30 7 6 5 7 5 6 6 6 4 8 5 9 5 4 7 4 3 6 10 24 41 28 39 39 28 22 18 17 17 15 21 28 29
54 66 67 58 56 48 41 31 27 21 23 26 25 2 3 5 31 24 14 9 5 5 2 4 6 2 4 7 6 4 11 2 4 4 15 6 4 11 6 19 40 39 33 30 24 11 12 15 21 21 20 19 25 28
50 63 60 55 53 45 33 27 24 25 26 11 9 6 7 17 4 1 4 3 2 3 6 6 5 7 3 5 4 6 3 2 5 5 3 4 4 5 20 38 29 29 28 20 13 12 15 25 22 14 15 19 22 21
46 60 58 48 57 44 20 20 19 22 8 9 7 7 2 4 3 5 2 2 1 5 4 6 4 5 7 4 6 4 5 5 2 11 5 3 5 13 37 30 24 27 27 18 21 12 13 24 13 9 4 6 13 15
40 54 49 46 52 23 14 12 12 15 7 4 3 1 4 6 5 5 3 5 3 5 10 8 2 5 6 5 11 6 9 3 7 7 3 7 10 29 25 21 23 27 27 25 18 17 18 15 17 13 14 11 12 8
38 47 38 44 44 18 12 9 16 19 8 5 5 7 3 4 4 5 6 5 2 5 17 11 8 5 5 8 2 9 4 4 7 6 6 5 16 21 18 21 25 29 29 28 29 31 32 32 30 29 26 21 14 9
39 36 27 39 39 22 13 22 13 15 6 3 1 3 3 3 7 5 8 8 5 15 16 10 10 4 5 8 4 7 8 3 8 8 6 4 10 10 16 22 26 30 34 36 37 36 34 31 28 25 20 14 7 7
42 27 28 36 36 23 11 18 17 11 4 2 3 3 3 1 4 7 8 8 11 28 8 3 5 7 4 7 6 7 9 9 7 6 9 7 13 19 21 23 25 28 30 29 27 26 23 21 18 17 15 16 19 25
42 22 35 35 32 26 14 13 7 5 3 1 1 3 5 5 7 2 5 5 27 10 3 5 6 8 4 5 1 7 8 6 18 23 20 21 23 26 28 29 27 25 22 20 19 18 18 19 21 22 22 25 28 32
40 41 28 29 28 26 12 4 5 3 1 2 1 1 3 6 7 6 6 17 16 4 8 5 16 5 8 10 7 7 14 18 25 25 27 28 29 29 27 23 19 15 14 15 18 21 24 25 26 28 31 35 39 44
41 40 26 22 21 19 6 3 3 2 3 3 4 3 4 6 8 10 8 25 9 3 7 6 6 5 7 9 10 22 30 22 24 28 30 32 30 26 20 14 10 11 13 16 18 17 19 24 29 34 38 43 47 51
36 32 17 13 13 7 6 4 4 2 1 3 3 2 3 5 5 7 13 22 11 5 2 2 8 6 6 11 25 30 26 24 28 33 31 30 26 19 10 5 9 12 15 14 15 22 27 33 37 42 47 52 56 57
34 24 26 15 7 10 7 4 3 1 1 4 3 3 3 4 4 6 9 14 9 7 5 9 6 15 29 30 29 27 24 21 19 14 29 31 23 14 3 10 13 15 13 17 25 32 37 42 47 50 52 53 54 52
33 29 15 6 8 6 6 7 2 3 2 2 5 5 4 2 4 7 7 11 9 9 7 5 18 27 31 30 26 21 18 15 13 14 19 21 16 7 11 14 16 14 19 26 34 40 44 48 51 52 52 49 44 40
31 18 7 8 7 6 3 6 5 5 3 4 3 1 3 2 4 5 6 11 11 20 22 17 25 30 29 26 21 15 10 10 14 16 15 12 10 13 15 14 13 19 27 34 41 45 48 49 49 48 45 39 36 32
32 6 7 6 9 4 4 5 4 4 3 0 2 4 3 3 2 4 6 7 18 31 37 29 32 34 30 25 20 14 6 13 15 14 13 16 18 16 11 12 19 27 34 40 44 45 45 45 43 37 32 29 29 28
8 6 5 7 6 4 3 3 2 3 5 5 5 4 3 1 3 4 6 7 17 32 37 32 33 32 30 26 22 16 7 9 12 13 14 15 11 8 10 17 26 32 40 40 41 42 41 36 29 27 26 23 21 24
1 4 3 5 3 7 9 7 9 11 5 7 6 2 3 4 3 9 6 7 12 24 31 34 31 29 25 19 15 13 15 15 11 10 10 8 3 8 18 26 33 36 35 37 38 35 29 24 23 21 18 21 25 29
6 10 10 11 5 3 2 2 2 3 8 9 6 6 4 4 8 6 4 8 11 20 22 26 27 26 23 21 18 19 18 14 10 9 10 2 9 19 26 29 30 31 33 33 29 21 19 17 15 17 22 27 33 39
21 10 9 12 11 9 4 2 7 10 7 12 16 7 9 11 6 4 6 14 20 21 23 25 25 21 21 23 22 19 14 14 15 11 2 12 21 25 28 27 28 29 27 21 15 14 13 15 18 23 28 34 37 41
18 21 17 6 5 9 14 12 9 11 11 22 7 6 5 3 6 9 19 20 23 24 26 25 25 23 22 20 19 20 22 18 9 2 12 18 22 24 24 26 25 21 15 12 11 11 14 19 24 30 35 37 39 41
13 26 13 9 7 11 8 12 4 13 13 13 5 6 6 7 12 18 19 21 23 24 24 25 23 21 21 20 20 20 14 6 5 11 16 19 21 22 21 19 14 9 10 9 10 14 20 26 31 34 35 38 39 40
11 29 10 11 8 5 7 10 12 12 12 6 5 4 9 12 12 17 19 22 24 23 22 21 21 20 21 19 17 12 9 8 9 13 15 16 16 15 12 7 7 8 8 10 15 21 26 30 31 34 35 38 40 40
17 20 12 7 4 7 13 8 11 5 6 5 4 6 8 7 6 13 13 19 23 24 24 23 23 21 17 15 12 9 9 7 8 9 11 11 9 6 5 7 7 6 10 17 23 27 28 30 33 35 38 38 37 34
7 10 7 8 5 6 15 11 4 4 6 5 5 4 4 7 6 9 9 17 20 21 21 21 19 16 14 12 10 7 5 4 6 6 5 3 5 8 9 9 7 11 17 22 25 26 29 32 35 37 36 34 32 30
Wind_Direction_850mb
323 325 325 325 325 322 324 324 322 321 318 314 312 307 296 293 289 288 288 276 245 242 219 210 237 276 321 327 266 313 335 336 40 186 138 199 121 198 88 209 178 159 136 171 117 88 277 173 125 181 230 183 17 48
322 324 326 327 325 324 325 324 322 320 318 310 303 297 289 291 283 286 285 225 241 232 186 219 249 281 281 303 304 280 245 228 283 89 40 102 77 74 155 243 360 314 175 183 185 213 204 193 214 241 247 293 179 110
324 326 325 326 325 325 325 327 325 324 324 319 287 275 274 283 272 276 277 260 206 220 219 218 225 247 258 281 312 302 317 329 12 167 190 130 125 145 144 256 47 284 178 174 45 299 241 233 241 253 252 253 225 166
324 326 328 327 327 325 325 327 325 329 339 348 346 273 274 269 272 272 282 230 232 202 151 203 227 275 288 291 273 263 295 317 316 202 72 125 108 196 126 160 173 181 139 186 263 261 292 270 262 261 248 241 226 204
325 325 328 327 327 327 328 325 326 330 333 340 336 310 285 263 262 271 275 257 245 248 163 263 232 247 293 326 345 258 273 294 304 10 39 52 67 98 4 54 316 198 231 184 248 318 64 314 321 301 242 232 222 205
326 325 327 328 326 326 325 325 325 327 327 328 318 300 280 265 242 295 220 246 225 217 249 56 289 337 223 38 59 61 159 224 269 115 138 110 86 106 99 165 69 13 338 314 287 322 308 297 307 304 253 232 221 209
326 328 331 329 327 323 319 321 323 323 320 324 316 308 269 240 215 227 247 50 198 196 176 18 340 9 25 10 16 19 48 60 80 71 45 56 44 50 95 102 346 353 351 335 329 312 288 303 291 304 271 228 214 205
329 331 332 333 335 335 328 327 324 326 324 316 308 292 268 209 225 254 254 261 245 189 219 110 280 5 21 13 21 13 9 30 36 41 41 25 9 14 38 286 343 344 337 314 357 332 290 282 286 278 257 218 210 203
333 333 336 339 341 341 340 337 334 329 328 341 39 284 298 220 202 208 246 214 189 173 156 89 134 226 16 34 7 24 20 53 10 56 36 353 329 46 240 302 334 337 320 298 302 294 289 288 287 275 244 219 214 205
333 337 337 337 342 342 338 338 341 347 343 324 314 284 70 50 127 117 146 158 168 191 86 101 131 90 33 30 25 352 24 54 60 308 324 51 275 276 314 349 332 328 323 314 303 344 5 351 328 293 265 242 229 222
332 338 337 337 336 332 338 337 339 334 339 345 16 27 150 145 266 192 86 93 41 40 20 106 178 140 97 99 171 37 182 335 76 284 87 338 330 278 348 341 347 345 341 329 288 228 341 340 317 300 276 240 223 219
332 337 337 334 337 333 335 337 341 355 1 12 58 78 119 291 355 77 24 352 69 222 174 137 135 102 116 106 101 353 115 29 172 328 68 21 252 5 346 358 12 18 24 51 102 88 4 355 4 356 105 190 203 193
331 341 341 346 345 359 358 356 7 6 7 335 344 9 13 342 19 111 229 308 307 203 177 169 82 89 111 88 69 68 69 199 306 37 192 230 321 351 4 26 35 36 41 51 50 27 11 33 35 56 82 116 142 161
326 339 342 358 360 39 7 343 345 2 341 318 10 328 130 322 260 188 204 199 301 245 166 131 98 99 61 54 179 83 246 60 50 57 233 257 345 8 34 51 54 54 54 57 59 61 67 70 72 75 76 81 80 72
330 330 327 354 352 360 341 331 340 342 290 267 94 265 258 337 256 259 274 282 222 170 154 118 78 79 15 81 32 106 37 355 191 207 224 288 16 64 83 79 72 73 73 72 72 73 72 71 70 68 68 63 43 333
333 332 336 350 343 337 310 323 320 307 254 229 131 108 219 51 264 215 220 258 188 169 157 115 103 60 6 126 77 200 117 208 225 213 168 120 116 106 97 93 87 82 77 72 67 60 53 46 37 25 5 342 325 315
334 328 333 337 341 337 296 319 310 272 263 257 333 221 209 273 264 232 186 183 167 178 219 116 87 198 107 47 278 188 198 214 169 151 139 131 122 114 108 102 93 83 69 53 37 22 8 357 347 339 329 324 319 313
331 328 319 321 333 342 310 229 237 259 294 223 193 187 241 263 288 253 227 171 170 246 170 200 130 120 184 162 255 227 202 142 141 144 142 138 133 126 118 107 89 63 34 11 355 349 346 344 341 339 335 329 324 319
327 320 321 317 337 333 291 290 259 200 217 267 278 263 264 280 261 247 218 181 198 240 166 150 87 196 228 212 192 146 154 154 164 155 151 147 143 137 127 104 61 17 351 337 334 337 337 332 328 326 323 320 317 316
323 323 299 299 320 298 274 275 295 294 220 210 247 277 297 289 270 237 202 182 187 177 290 171 213 228 198 138 137 142 143 148 155 156 160 157 154 152 140 48 348 326 319 322 326 330 330 328 327 324 322 322 321 321
348 336 316 276 291 235 262 255 251 236 233 238 230 225 248 209 210 205 198 186 187 217 250 233 219 147 130 128 128 128 128 133 154 176 176 169 169 175 243 309 309 309 313 325 327 326 328 326 323 324 326 325 324 323
341 335 319 252 239 248 261 223 199 183 213 247 207 235 247 247 205 188 205 210 226 227 238 187 155 146 140 138 133 129 124 124 141 157 167 176 182 233 283 291 299 309 322 324 324 324 324 323 326 327 327 328 328 330
345 334 275 243 228 229 231 208 198 200 148 242 200 311 277 264 226 210 247 224 224 192 187 182 169 161 156 153 149 142 142 159 159 158 167 190 248 276 286 295 309 318 321 323 324 324 325 327 328 329 331 333 337 342
339 249 250 236 213 235 189 182 215 176 158 124 198 243 267 247 220 213 254 244 200 194 199 197 183 178 175 173 174 170 148 176 182 191 219 247 268 283 290 304 315 321 324 324 324 326 328 329 330 333 339 345 345 347
311 254 244 263 207 97 89 354 316 91 241 202 197 244 254 184 200 237 234 254 195 194 193 188 193 191 193 190 194 198 204 178 188 209 234 251 261 268 298 319 323 326 326 325 327 329 330 333 339 346 351 353 358 1
319 279 187 240 255 158 193 164 202 206 171 185 218 196 168 167 190 240 224 170 165 177 192 199 193 184 177 176 186 192 184 178 188 218 236 214 212 320 326 328 330 328 327 327 330 333 339 350 355 356 0 4 360 349
237 279 230 236 230 198 18 228 221 150 183 200 176 167 191 193 238 254 149 140 141 164 172 176 179 185 190 191 186 181 181 191 192 168 160 148 341 333 332 331 329 330 332 334 341 353 3 4 8 11 5 354 346 346
223 232 201 196 193 216 168 221 192 209 210 173 139 187 197 204 231 162 140 137 135 140 149 160 167 167 166 171 177 182 173 162 161 151 66 337 336 337 335 333 333 336 340 351 7 12 19 21 12 357 348 347 348 346
215 212 191 168 190 222 223 211 219 214 178 174 179 210 220 156 147 143 146 143 140 133 127 134 144 147 150 152 154 155 151 147 149 327 333 337 341 339 334 333 335 340 2 25 31 29 17 1 350 347 347 348 348 347
215 195 169 150 191 220 232 217 233 172 180 178 166 130 114 111 123 139 139 135 135 137 141 142 143 147 152 153 154 158 166 184 313 329 333 336 337 334 333 334 346 28 57 54 25 5 356 352 350 349 348 344 344 345
189 186 196 188 221 246 232 198 169 153 146 149 141 119 118 119 131 143 148 151 150 149 144 144 147 150 155 162 174 200 240 280 310 327 328 329 336 339 340 10 67 77 58 17 355 353 352 352 351 348 347 347 349 353
193 189 180 201 249 184 154 164 162 168 148 159 108 117 126 119 125 161 166 177 177 172 170 168 168 173 182 199 216 237 263 283 304 315 322 336 349 3 78 101 94 54 10 355 354 351 354 352 349 348 349 354 360 4
195 192 170 134 124 213 191 171 112 100 73 72 57 91 112 143 131 188 205 210 204 203 199 194 192 194 207 222 230 234 246 268 292 322 351 47 101 113 112 96 50 12 0 354 350 355 352 352 351 353 358 4 9 13